Lid_Strength_Index
3 3 3 3 3 3 3 2 2 2 2 2 2 2 2 2 3 5 8 5 1 -0 -0 1 2 2 2 4 4 4 10 12 11 10 9 6 8 5 4 6 5 5 5 4 2
3 3 3 3 3 3 3 2 2 2 2 2 2 2 1 2 4 6 3 -1 -0 -0 3 5 7 6 6 6 5 7 10 10 7 7 8 6 7 6 7 7 7 6 4 3 2
3 3 3 3 3 3 3 3 3 3 2 2 2 2 1 2 5 6 -1 -1 -1 -0 5 6 6 6 8 7 6 6 9 7 6 6 6 6 6 5 7 9 7 7 6 4 3
3 4 4 4 3 3 3 3 3 3 3 2 2 1 1 4 10 6 -2 -1 -1 1 5 6 7 8 8 8 5 8 6 6 6 5 6 7 5 7 7 7 5 5 4 4 4
4 4 4 4 3 3 3 3 3 3 3 3 2 1 5 8 7 5 -1 -1 0 4 6 7 8 8 7 7 6 7 6 6 5 5 5 5 7 7 7 5 4 4 4 4 4
4 4 4 4 3 3 3 3 3 3 3 2 2 1 5 9 4 3 2 1 4 5 6 6 7 7 7 6 7 6 6 6 6 6 5 7 7 6 6 4 5 5 5 4 4
4 4 4 4 4 4 3 4 4 3 3 2 1 2 7 10 5 5 5 4 4 5 6 5 6 7 6 7 5 6 8 7 7 6 7 6 9 8 5 5 6 5 5 4 4
3 4 4 4 4 4 4 4 4 3 2 1 1 5 9 5 4 5 7 8 6 6 5 5 5 6 6 5 6 8 8 10 7 6 6 7 12 7 5 6 6 5 5 5 4
4 4 4 4 4 4 5 5 4 2 1 1 5 6 8 2 7 6 6 8 9 8 7 5 7 8 8 8 10 9 13 11 10 7 8 8 11 7 5 6 6 6 5 5 4
4 4 4 4 4 5 5 5 4 3 2 2 3 9 8 8 7 7 7 7 10 8 7 8 9 11 11 11 13 12 11 11 11 8 8 10 10 8 6 6 6 6 5 5 5
4 4 4 4 4 5 6 6 8 8 8 7 10 8 7 7 6 7 7 8 9 9 12 9 11 13 10 10 9 9 10 11 9 8 9 10 10 8 7 6 7 6 6 6 5
4 4 4 4 5 5 7 6 6 7 10 7 6 5 4 5 7 7 7 9 10 10 10 11 12 9 9 8 9 9 10 10 9 8 9 10 11 8 7 7 6 6 6 6 5
4 4 4 5 5 6 6 5 3 5 10 8 7 7 6 6 7 7 8 10 10 11 11 12 10 8 9 9 9 10 10 10 10 8 8 10 12 11 8 7 6 5 5 5 5
4 4 4 5 6 8 6 4 3 6 12 10 10 7 7 6 8 6 7 8 11 11 11 10 9 8 10 10 10 13 7 8 9 11 15 9 16 12 10 9 7 6 6 5 5
4 4 5 6 9 7 4 4 4 7 16 7 9 6 7 8 9 8 5 8 10 10 11 11 9 9 11 10 9 10 8 8 9 10 11 12 15 13 10 11 9 8 6 5 5
4 4 5 6 8 6 4 5 6 12 15 9 8 9 10 10 9 7 8 8 8 10 11 10 8 9 10 8 9 8 9 9 11 11 15 13 13 14 13 10 9 7 6 5 5
5 5 6 5 8 6 6 6 12 15 8 10 10 10 11 12 10 9 10 11 12 15 15 12 10 10 9 12 11 11 13 16 15 15 16 13 13 12 9 8 8 7 6 5 5
5 6 6 6 6 6 6 9 15 10 10 8 9 10 10 11 11 10 11 12 12 12 15 14 14 11 9 11 12 14 13 15 17 16 15 13 15 12 8 7 7 6 6 5 5
6 7 6 5 5 6 8 13 12 11 9 9 10 11 12 10 10 11 12 12 11 11 13 15 14 9 9 10 11 13 13 12 15 15 15 14 13 9 8 8 7 7 6 6 5
7 7 7 3 4 5 9 12 10 9 7 8 12 11 13 12 11 12 13 10 10 9 10 12 14 9 9 9 10 11 10 13 15 17 18 15 15 14 11 10 8 8 7 6 5
7 7 4 3 4 7 11 11 8 6 6 9 10 11 12 12 12 12 12 10 9 9 11 12 13 11 12 13 13 12 12 12 14 15 17 18 15 10 9 8 8 7 6 6 6
9 9 4 4 8 10 12 9 7 7 6 8 9 10 11 10 12 12 11 9 7 9 11 10 13 14 11 10 10 11 11 12 15 15 15 16 15 8 7 7 7 8 7 6 5
10 8 5 5 11 11 9 8 7 8 8 8 9 8 9 10 11 11 9 7 6 7 11 10 14 15 13 13 12 12 12 13 14 15 16 16 15 8 8 8 7 7 7 6 5
9 9 8 8 9 10 11 9 9 6 7 7 8 8 10 10 11 11 9 7 5 6 6 8 14 15 14 14 13 13 12 12 13 16 15 14 12 11 10 9 8 7 6 6 6
10 10 10 12 10 11 10 9 9 9 7 7 8 8 10 12 11 11 9 8 7 6 8 12 14 14 12 12 11 12 11 11 13 14 14 12 12 11 9 8 7 7 6 6 6
11 11 10 11 10 10 10 10 8 8 8 9 9 8 8 12 10 11 10 10 10 8 9 11 14 14 13 11 12 12 11 11 12 11 13 12 11 8 7 7 7 7 7 7 6
7 8 9 10 10 12 12 10 9 9 8 8 7 8 9 8 7 7 8 8 8 10 10 11 12 13 16 12 12 14 12 11 11 11 11 13 11 8 8 7 7 7 7 7 6